Weather History for Hayward, WI

Change the Weather History Date:

Saturday, January 25, 2014

  Actual Average Record
Temperature  
Mean Temperature 3 °F -  
Max Temperature 12 °F 24 °F 43 °F (2002)
Min Temperature -6 °F -4 °F -27 °F (1997)
Degree Days  
Heating Degree Days 62    
Moisture  
Dew Point -11 °F    
Average Humidity 56    
Maximum Humidity 72    
Minimum Humidity 41    
Precipitation  
Precipitation 0.00 in - - ()
Sea Level Pressure  
Sea Level Pressure 29.71 in    
Wind  
Wind Speed 7 mph (West)    
Max Wind Speed 10 mph    
Max Gust Speed 25 mph    
Visibility 10 miles    
Events      
Averages and records for this station are not official NWS values.
T = Trace of Precipitation, MM = Missing Value Source: NWS Daily Summary

Daily Weather History Graph

Daily Weather History Graph

Search for Another Location

Airport:

Trip Planner

Search our weather history database for the weather conditions in past years. The results will help you decide how hot, cold, wet, or windy it might be!

Date:

Astronomy

Jan. 25, 2014 Rise Set
Actual Time 7:35 AM CST 5:01 PM CST
Civil Twilight 7:03 AM CST 5:33 PM CST
Nautical Twilight 6:26 AM CST 6:09 PM CST
Astronomical Twilight 5:51 AM CST 6:45 PM CST
Moon 2:06 AM CST (1/25) 12:02 PM CST (1/25)
Length of Visible Light 10h 30m
Length of Day
9h 25m
Waning Crescent, 34% of the Moon is Illuminated
Jan 25
Waning Crescent
Jan 30
New
Feb 6
First Quarter
Feb 14
Full
Feb 22
Last Quarter

Hourly Weather History & Observations

Time (CST) Temp. Windchill Dew Point Humidity Pressure Visibility Wind Dir Wind Speed Gust Speed Precip Events Conditions
12:53 AM 12.9 °F 1.6 °F 3.0 °F 65% 29.53 in 10.0 mi NW 8.1 mph - N/A   Partly Cloudy
1:53 AM 12.0 °F 2.7 °F 1.9 °F 64% 29.55 in 10.0 mi Variable 5.8 mph - N/A   Overcast
2:30 AM 8.1 °F -5.3 °F -2.9 °F 61% 29.51 in 8.0 mi NW 9.2 mph 21.9 mph 0.00 in   Scattered Clouds
2:53 AM 6.1 °F -5.6 °F -6.0 °F 58% 29.62 in 8.0 mi Variable 6.9 mph 25.3 mph 0.00 in   Clear
3:33 AM 3.9 °F -8.2 °F -6.0 °F 64% 29.55 in 10.0 mi Variable 6.9 mph 21.9 mph 0.00 in   Overcast
3:53 AM 3.0 °F -9.3 °F -7.1 °F 63% 29.64 in 10.0 mi Variable 6.9 mph - 0.00 in   Mostly Cloudy
4:06 AM 3.0 °F -9.3 °F -8.0 °F 60% 29.57 in 10.0 mi Variable 6.9 mph 19.6 mph N/A   Scattered Clouds
4:53 AM 1.0 °F -10.3 °F -9.9 °F 60% 29.68 in 10.0 mi Variable 5.8 mph - N/A   Clear
5:53 AM -0.9 °F -12.7 °F -11.9 °F 60% 29.71 in 10.0 mi Variable 5.8 mph - N/A   Clear
6:53 AM -2.0 °F -15.4 °F -11.9 °F 63% 29.74 in 10.0 mi Variable 6.9 mph - N/A   Clear
7:53 AM -2.9 °F -16.5 °F -13.0 °F 62% 29.76 in 10.0 mi Variable 6.9 mph - N/A   Clear
8:53 AM -0.9 °F - -13.0 °F 57% 29.77 in 10.0 mi North - - N/A   Clear
9:53 AM -0.9 °F -17.4 °F -13.0 °F 57% 29.79 in 10.0 mi NW 10.4 mph 18.4 mph 0.00 in   Partly Cloudy
10:53 AM 1.0 °F -11.7 °F -13.0 °F 52% 29.82 in 10.0 mi Variable 6.9 mph 18.4 mph N/A   Clear
11:53 AM 1.9 °F -11.8 °F -14.1 °F 47% 29.82 in 10.0 mi NNW 8.1 mph - N/A   Clear
12:53 PM 3.9 °F -10.4 °F -13.0 °F 46% 29.81 in 10.0 mi WNW 9.2 mph 17.3 mph N/A   Clear
1:53 PM 5.0 °F -8.1 °F -13.0 °F 43% 29.80 in 10.0 mi WNW 8.1 mph 17.3 mph N/A   Clear
2:53 PM 5.0 °F -8.1 °F -14.1 °F 41% 29.80 in 10.0 mi WNW 8.1 mph 18.4 mph N/A   Clear
3:53 PM 5.0 °F -6.9 °F -14.1 °F 41% 29.81 in 10.0 mi Variable 6.9 mph - N/A   Clear
4:53 PM 3.0 °F -6.4 °F -15.0 °F 43% 29.82 in 10.0 mi West 4.6 mph - N/A   Clear
5:53 PM -2.0 °F - -15.0 °F 54% 29.81 in 10.0 mi Calm Calm - N/A   Clear
6:53 PM -5.1 °F - -15.0 °F 62% 29.79 in 10.0 mi Calm Calm - N/A   Clear
7:53 PM -6.0 °F -14.7 °F -13.0 °F 72% 29.77 in 10.0 mi South 3.5 mph - N/A   Partly Cloudy
8:53 PM -0.0 °F -7.9 °F -13.0 °F 54% 29.75 in 10.0 mi South 3.5 mph - N/A   Overcast
9:53 PM 1.0 °F - -11.9 °F 55% 29.70 in 10.0 mi Calm Calm - N/A   Overcast
10:53 PM 1.0 °F -6.7 °F -11.9 °F 55% 29.68 in 10.0 mi SW 3.5 mph - N/A   Overcast
11:53 PM 1.0 °F -6.7 °F -11.0 °F 57% 29.64 in 10.0 mi South 3.5 mph - N/A   Overcast